Location: Azenweiler
(47.8027°N, 9.4096°E)
Time: 03:15:09
(UTC+00:00)

Cosmos 1626 Rocket - Pass Details

Date: 20 March 2026
Orbit: 596 x 624 km, 82.5° (Epoch: 13 April)

Event Time Altitude Azimuth Distance (km) Brightness Sun altitude
Rises 04:20:26 0° 340° (NNW) 2,890 6.9 -11.7°
Reaches altitude 10° 04:22:55 10° 328° (NNW) 1,974 6.0 -11.3°
Maximum altitude 04:26:34 27° 271° (W) 1,189 4.5 -10.7°
Drops below altitude 10° 04:30:10 10° 214° (SW) 1,946 5.7 -10.1°
Sets 04:32:37 0° 202° (SSW) 2,839 6.6 -9.7°
